Location: Spring Creek
(38.2870°N, 100.2160°W)
Time: 03:59:33
(UTC+00:00)

Cosmos 2227 Rocket - Pass Details

Date: 08 May 2021
Orbit: 840 x 844 km, 71.0° (Epoch: 22 June)

Event Time Altitude Azimuth Distance (km) Brightness Sun altitude
Rises 10:13:58 0° 332° (NNW) 3,400 5.5 -14.8°
Reaches altitude 10° 10:16:27 10° 328° (NNW) 2,462 4.7 -14.4°
Maximum altitude 10:21:55 53° 253° (WSW) 1,024 2.3 -13.6°
Drops below altitude 10° 10:27:22 10° 177° (S) 2,449 4.3 -12.7°
Sets 10:29:51 0° 173° (S) 3,380 5.1 -12.3°
